Location: Betzi
(47.2343°N, 9.5260°E)
Time: 22:46:19
(UTC+00:00)

DEBRIS - Pass Details

Date: 27 May 2022
Orbit: 313 x 15072 km, 49.4° (Epoch: 29 June)

Event Time Altitude Azimuth Distance (km) Brightness Sun altitude
Rises 02:29:38 0° 287° (WNW) 7,898 8.4 -9.2°
Reaches altitude 10° 02:37:03 10° 288° (WNW) 4,933 7.4 -8.3°
Maximum altitude 02:46:58 83° 202° (SSW) 781 3.5 -7.1°
Drops below altitude 10° 02:50:07 10° 114° (ESE) 1,639 5.6 -6.7°
Sets 02:51:27 0° 113° (ESE) 2,282 6.3 -6.5°
